Regional Weather Roundup
Issued by NWS Sioux Falls, SD

Home | Current Version | Previous Version | Graphics & Text | Print | Product List | Glossary On
Versions: 1 2 3 4 5 6 7 8 9 10 11 12 13 14 15 16 17 18 19 20 21 22 23 24 25 26 27 28 29 30 31 32 33 34 35 36 37 38 39 40 41 42 43 44 45 46 47 48 49 50
000
ASUS43 KFSD 192302
RWRFSD

WEATHER ROUNDUP FOR SE SOUTH DAKOTA/SW MINNESOTA/NW IOWA
NATIONAL WEATHER SERVICE SIOUX FALLS SD
500 PM CST MON FEB 19 2018

NOTE: "FAIR" INDICATES FEW OR NO CLOUDS BELOW 12,000 FEET WITH NO
SIGNIFICANT WEATHER AND OR OBSTRUCTIONS TO VISIBILITY.


SDZ038>040-050-052>070-200000-
SOUTHEAST SOUTH DAKOTA

CITY           SKY/WX    TMP DP  RH WIND       PRES   REMARKS
BROOKINGS      LGT SNOW  12   8  84 N17G24    29.89  FOG     WCI  -5
CHAMBERLAIN    LGT SNOW  12   8  85 NW16G22   29.96R WCI  -4
HURON          LGT SNOW  11   7  84 N18       29.97R FOG     WCI  -7
MADISON        FLURRIES  12  12 100 NE20G29   29.87S WCI  -6
MITCHELL       LGT SNOW  14  10  84 N21       29.95R FOG     WCI  -4
SIOUX FALLS    LGT SNOW  15  12  88 N10       29.87S FOG     WCI   2
WINNER         LGT SNOW  10   5  80 N14       29.94S WCI  -6
YANKTON        LGT SNOW  17  14  88 N13       29.90R FOG     WCI   4
$$

MNZ071-072-080-081-089-090-097-098-200000-
SOUTHWEST MINNESOTA

CITY           SKY/WX    TMP DP  RH WIND       PRES   REMARKS
FAIRMONT       MIX PCPN  22  20  92 N17G24    29.82R FOG     WCI   8
JACKSON        CLOUDY    19  18  93 N15       29.82R FOG     WCI   5
LUVERNE        FLURRIES  18  12  79 NE14G21   29.87R WCI   4
MARSHALL       LGT SNOW  15  12  88 N20G26    29.92F FOG     WCI  -2
MONTEVIDEO     LGT SNOW  16  12  86 NE21G26   29.95F WCI  -2
PIPESTONE      CLOUDY    12  10  92 NE21G28   29.84S WCI  -6
REDWOOD FALLS  CLOUDY    16  14  92 N14G22    29.92R FOG     WCI   2
TRACY          LGT SNOW  16  15  93 N22       29.88F WCI  -1
WINDOM         LGT SNOW  18   5  57 N20G25    29.83S VSB 3/4 WCI   1
WORTHINGTON    MIX PCPN  15  13  91 N20G26    29.85R FOG     WCI  -2
$$

IAZ001>003-012>014-020>022-031-032-NEZ013-014-SDZ071-200000-
NORTHWEST IOWA

CITY           SKY/WX    TMP DP  RH WIND       PRES   REMARKS
CHEROKEE       CLOUDY    20  19  97 N9        29.84S FOG     WCI   9
DENISON        PTCLDY    23  21  93 N12       29.82S FOG     WCI  12
ESTHERVILLE    CLOUDY    19  18  95 N20       29.81R FOG     WCI   3
LE MARS        MOCLDY    19  18  93 MISG      29.85F FOG
ORANGE CITY    CLOUDY    19  19 100 NE12G18   29.83F FOG     WCI   7
SHELDON        LGT SNOW  18  18 100 MISG      29.82F
SIOUX CITY     CLOUDY    20  18  92 N14       29.85S WCI   7
SPENCER        LGT SNOW  21  18  88 N18       29.82R VSB 1   WCI   6
STORM LAKE     CLEAR     19  19 100 MISG      29.79F FOG
$$

ABBREVIATIONS USED IN REMARKS
   TC - TEMPERATURE IN CELSIUS
  WCI - WIND CHILL INDEX
   HX - HEAT INDEX
  VSB - VISIBILITY




USA.gov is the U.S. government's official web portal to all federal, state and local government web resources and services.